Tracking 25707 objects as of 29-Jun-2022
HD Live streaming from Space Station
objects crossing your sky now

TELSTAR 302

Track TELSTAR 302 now!
TELSTAR 302 is classified as:


NORAD ID: 15237
Int'l Code: 1984-093D
Perigee: 35,897.4 km
Apogee: 35,967.3 km
Inclination: 14.9 °
Period: 1,443.2 minutes
Semi major axis: 42303 km
RCS: 4.6276 m2 (large)
Launch date: August 30, 1984
Source: United States (US)
Launch site: AIR FORCE EASTERN TEST RANGE (AFETR)
aabbcc
Your satellite tracking list
Your tracking list is empty




NASA's NSSDC Master Catalog

Two Line Element Set (TLE):
1 15237U 84093D   22179.13110937  .00000086  00000-0  00000-0 0  9992
2 15237  14.8962 356.5215 0008261 104.5260 255.2722  0.99779533 31968
Source of the keplerian elements: AFSPC